This is the latest recevied weather packets stored in our database for station/object N0QWM. If no packets are shown the sender has not sent any weather packets the latest 10 day(s).
| Time | Temp. | Humidity | Pressure | Rain* | Wind** | Luminosity | Snow |
|---|---|---|---|---|---|---|---|
| 1778247059 | 15.56° C | 87% | 1023.5 hPa | 0 mm | - | 157 W/m² | - |
| 1778246757 | 15.56° C | 83% | 1023.3 hPa | 0 mm | - | 168 W/m² | - |
| 1778246453 | 15° C | 90% | 1023.1 hPa | 0 mm | - | 162 W/m² | - |
| 1778246149 | 15° C | 91% | 1023.4 hPa | 0 mm | - | 145 W/m² | - |
| 1778245846 | 14.44° C | 93% | 1023 hPa | 0 mm | - | 143 W/m² | - |
| 1778245543 | 14.44° C | 94% | 1023.2 hPa | 0 mm | - | 138 W/m² | - |
| 1778245239 | 14.44° C | 94% | 1023.3 hPa | 0 mm | - | 129 W/m² | - |
| 1778244935 | 14.44° C | 93% | 1023.1 hPa | 0 mm | - | 127 W/m² | - |
| 1778244633 | 13.89° C | 96% | 1022.9 hPa | 0 mm | - | 130 W/m² | - |
| 1778244331 | 13.89° C | 96% | 1023.3 hPa | 0 mm | - | 124 W/m² | - |
| 1778244028 | 13.89° C | 97% | 1023 hPa | 0 mm | - | 100 W/m² | - |
| 1778243726 | 13.33° C | 99% | 1022.8 hPa | 0 mm | - | 82 W/m² | - |
| 1778243422 | 13.33° C | 99% | 1022.8 hPa | 0 mm | - | 82 W/m² | - |
| 1778243119 | 13.33° C | 99% | 1022.9 hPa | 0 mm | - | 78 W/m² | - |
| 1778242816 | 13.33° C | 99% | 1022.7 hPa | 0 mm | - | 75 W/m² | - |
| 1778242514 | 12.78° C | 99% | 1022.8 hPa | 0 mm | - | 71 W/m² | - |
| 1778242213 | 12.78° C | 99% | 1022.6 hPa | 0 mm | - | 67 W/m² | - |
| 1778241909 | 12.78° C | 99% | 1022.2 hPa | 0 mm | - | 65 W/m² | - |
| 1778241608 | 12.78° C | 99% | 1022.3 hPa | 0 mm | - | 56 W/m² | - |
| 1778241305 | 12.78° C | 99% | 1022.3 hPa | 0 mm | - | 48 W/m² | - |
| 1778241001 | 12.22° C | 99% | 1022.2 hPa | 0 mm | - | 39 W/m² | - |
| 1778240698 | 12.22° C | 99% | 1022.3 hPa | 0 mm | - | 32 W/m² | - |
| 1778240395 | 12.22° C | 99% | 1022.2 hPa | 0 mm | - | 28 W/m² | - |
| 1778240092 | 12.22° C | 99% | 1022 hPa | 0 mm | - | 21 W/m² | - |
| 1778239789 | 12.22° C | 99% | 1022 hPa | 0 mm | - | 13 W/m² | - |
* Rain latest hour (hover to see other rain measurements)
** Current wind speed in m/s (hover to see current wind gust speed)